FW8669 Weather Reports


Display with metric or nautical units.
time (UTC)temp
F
wind
direction
speed
MPH
gust
MPH
rain 1hr
in
rain 24hr
in
rain mn
in
humidity
%
barometer
mb
20260507132546 69 192 7.0 9.0 0.00 0.00 0.00 62 1022.1
20260507132042 69 209 7.0 9.0 0.00 0.00 0.00 63 1022.2
20260507131539 69 182 5.0 9.0 0.00 0.00 0.00 61 1022.1
20260507131036 69 170 7.0 10.0 0.00 0.00 0.00 63 1022.2
20260507130533 69 210 5.0 8.0 0.00 0.00 0.00 62 1022.3
20260507130032 69 195 5.0 7.0 0.00 0.00 0.00 63 1022.2
20260507125530 70 143 7.0 10.0 0.00 0.00 0.00 62 1022.2
20260507125027 69 166 7.0 9.0 0.00 0.00 0.00 62 1022.5
20260507124523 70 209 6.0 9.0 0.00 0.00 0.00 59 1022.3
20260507124021 69 181 7.0 11.0 0.00 0.00 0.00 63 1022.4
20260507123519 69 188 10.0 11.0 0.00 0.00 0.00 62 1022.5
20260507123015 69 158 9.0 10.0 0.00 0.00 0.00 62 1022.3
20260507122510 69 175 9.0 13.0 0.00 0.00 0.00 62 1022.3
20260507122007 70 187 9.0 13.0 0.00 0.00 0.00 62 1022.6
20260507121502 69 192 8.0 11.0 0.00 0.00 0.00 62 1022.5
20260507120958 69 187 11.0 15.0 0.00 0.00 0.00 63 1022.6
20260507120455 70 190 13.0 16.0 0.00 0.00 0.00 61 1022.6
20260507115952 70 168 5.0 10.0 0.00 0.00 0.00 61 1022.4
20260507115448 71 133 10.0 14.0 0.00 0.00 0.00 57 1022.4
20260507114944 69 124 5.0 10.0 0.00 0.00 0.00 61 1022.4
20260507114440 69 116 7.0 11.0 0.00 0.00 0.00 61 1022.3
20260507113938 70 142 11.0 15.0 0.00 0.00 0.00 63 1022.5
20260507113434 72 193 9.0 10.0 0.00 0.00 0.00 58 1022.4
20260507112932 71 78 3.0 9.0 0.00 0.00 0.00 56 1022.3
20260507112429 73 85 3.0 5.0 0.00 0.00 0.00 50 1022.5
20260507111926 72 41 6.0 8.0 0.00 0.00 0.00 52 1022.2
20260507111423 72 20 4.0 7.0 0.00 0.00 0.00 51 1022.3
20260507110920 73 324 6.0 14.0 0.00 0.00 0.00 51 1022.4
20260507110416 71 1 8.0 11.0 0.00 0.00 0.00 52 1022.3
20260507105913 72 290 2.0 6.0 0.00 0.00 0.00 50 1022.3
20260507105409 72 88 6.0 13.0 0.00 0.00 0.00 51 1022.5
20260507104906 71 39 4.0 7.0 0.00 0.00 0.00 51 1022.3
20260507104402 72 117 7.0 13.0 0.00 0.00 0.00 51 1022.7
20260507103858 72 70 7.0 11.0 0.00 0.00 0.00 51 1022.5
20260507103355 72 11 8.0 9.0 0.00 0.00 0.00 49 1022.5
20260507102851 71 87 3.0 13.0 0.00 0.00 0.00 54 1022.5
20260507102348 71 165 10.0 11.0 0.00 0.00 0.00 57 1022.6
20260507101844 73 51 5.0 9.0 0.00 0.00 0.00 48 1022.7
20260507101344 73 116 3.0 5.0 0.00 0.00 0.00 46 1022.4
20260507100842 73 73 4.0 7.0 0.00 0.00 0.00 46 1022.7
20260507100340 73 99 5.0 7.0 0.00 0.00 0.00 46 1022.9
20260507095838 72 343 8.0 9.0 0.00 0.00 0.00 45 1022.8
20260507095334 72 323 6.0 10.0 0.00 0.00 0.00 46 1022.7
20260507094831 72 42 5.0 13.0 0.00 0.00 0.00 47 1022.8
20260507094328 73 22 4.0 5.0 0.00 0.00 0.00 44 1022.8
20260507093825 72 92 7.0 9.0 0.00 0.00 0.00 45 1022.8
20260507093324 72 53 7.0 13.0 0.00 0.00 0.00 45 1023.0
20260507092821 72 77 3.0 8.0 0.00 0.00 0.00 43 1023.1
20260507092318 71 31 5.0 8.0 0.00 0.00 0.00 44 1023.1
20260507091814 71 57 9.0 11.0 0.00 0.00 0.00 45 1023.1
20260507091310 72 53 6.0 8.0 0.00 0.00 0.00 44 1023.0
20260507090805 72 89 2.0 5.0 0.00 0.00 0.00 44 1022.9
20260507090302 70 81 2.0 10.0 0.00 0.00 0.00 46 1023.0
20260507085759 71 356 5.0 13.0 0.00 0.00 0.00 47 1023.3
20260507085256 70 348 6.0 8.0 0.00 0.00 0.00 51 1023.1
20260507084753 71 78 6.0 10.0 0.00 0.00 0.00 50 1023.2
20260507084249 70 78 1.0 8.0 0.00 0.00 0.00 51 1023.2
20260507083747 70 4 8.0 10.0 0.00 0.00 0.00 51 1023.3
20260507083244 70 11 7.0 11.0 0.00 0.00 0.00 52 1023.1
20260507082739 70 94 2.0 7.0 0.00 0.00 0.00 52 1023.5
20260507082235 70 91 7.0 10.0 0.00 0.00 0.00 51 1023.4
20260507081732 70 26 7.0 9.0 0.00 0.00 0.00 52 1023.3
20260507081228 70 0 9.0 10.0 0.00 0.00 0.00 53 1023.3
20260507080725 69 121 1.0 9.0 0.00 0.00 0.00 55 1023.5
20260507080221 70 39 2.0 11.0 0.00 0.00 0.00 54 1023.5
20260507075717 70 318 7.0 10.0 0.00 0.00 0.00 53 1023.3
20260507075214 70 79 1.0 9.0 0.00 0.00 0.00 54 1023.5
20260507074710 70 15 6.0 7.0 0.00 0.00 0.00 53 1023.6
20260507074208 70 47 2.0 7.0 0.00 0.00 0.00 54 1023.4
20260507073704 70 68 5.0 6.0 0.00 0.00 0.00 54 1023.2
20260507073200 69 137 2.0 7.0 0.00 0.00 0.00 57 1023.4
20260507072659 68 123 5.0 8.0 0.00 0.00 0.00 62 1023.4
20260507072156 70 157 3.0 6.0 0.00 0.00 0.00 59 1023.1
20260507071653 69 184 3.0 5.0 0.00 0.00 0.00 60 1023.3
20260507071149 71 147 3.0 3.0 0.00 0.00 0.00 56 1023.1
20260507070647 70 70 3.0 6.0 0.00 0.00 0.00 53 1023.0
20260507070143 69 33 2.0 7.0 0.00 0.00 0.00 54 1023.1
20260507065639 69 51 5.0 7.0 0.00 0.00 0.00 53 1023.0
20260507065137 70 77 5.0 8.0 0.00 0.00 0.00 53 1023.2
20260507064634 70 47 1.0 7.0 0.00 0.00 0.00 53 1023.1
20260507064133 71 307 5.0 6.0 0.00 0.00 0.00 50 1023.3
20260507063630 69 123 2.0 2.0 0.00 0.00 0.00 50 1023.2
20260507063127 68 65 3.0 3.0 0.00 0.00 0.00 51 1023.1
20260507062623 68 328 4.0 6.0 0.00 0.00 0.00 54 1023.2
20260507062121 68 42 2.0 3.0 0.00 0.00 0.00 56 1023.0
20260507061619 68 19 3.0 8.0 0.00 0.00 0.00 55 1023.0
20260507061117 68 125 0.0 2.0 0.00 0.00 0.00 57 1023.1
20260507060615 67 342 3.0 8.0 0.00 0.00 0.00 60 1022.9
20260507060111 68 0 4.0 6.0 0.00 0.00 0.00 59 1023.2
20260507055606 67 348 5.0 6.0 0.00 0.00 0.00 60 1023.0
20260507055102 67 347 3.0 5.0 0.00 0.00 0.00 61 1023.0
20260507054558 67 359 3.0 3.0 0.00 0.00 0.00 62 1022.7
20260507054056 67 62 2.0 3.0 0.00 0.00 0.00 65 1023.1
20260507053553 65 160 3.0 7.0 0.00 0.00 0.00 67 1022.7
20260507053052 65 345 3.0 7.0 0.00 0.00 0.00 67 1022.9
20260507052549 65 343 4.0 7.0 0.00 0.00 0.00 68 1022.7
20260507052046 65 295 6.0 8.0 0.00 0.00 0.00 68 1022.9
20260507051543 65 319 4.0 6.0 0.00 0.00 0.00 69 1022.8
20260507051040 65 304 4.0 7.0 0.00 0.00 0.00 69 1022.8
20260507050537 65 114 0.0 1.0 0.00 0.00 0.00 69 1022.8
20260507050033 66 293 1.0 2.0 0.00 0.00 0.00 68 1022.8
20260507045530 66 114 1.0 3.0 0.00 0.00 0.00 67 1022.7
20260507045027 64 138 0.0 1.0 0.00 0.00 0.00 70 1022.7
20260507044524 64 134 0.0 3.0 0.00 0.00 0.00 71 1022.7
20260507044021 63 322 3.0 5.0 0.00 0.00 0.00 71 1022.6
20260507043516 62 240 2.0 2.0 0.00 0.00 0.00 72 1022.7
20260507043014 62 1 2.0 5.0 0.00 0.00 0.00 72 1022.8
20260507042510 62 158 0.0 1.0 0.00 0.00 0.00 73 1022.6
20260507042005 61 212 2.0 3.0 0.00 0.00 0.00 73 1022.5
20260507041503 61 285 5.0 6.0 0.00 0.00 0.00 73 1022.8
20260507040959 61 330 2.0 2.0 0.00 0.00 0.00 74 1022.5
20260507040455 60 292 3.0 5.0 0.00 0.00 0.00 74 1022.3
20260507035951 60 304 4.0 7.0 0.00 0.00 0.00 75 1022.4
20260507035448 59 13 7.0 8.0 0.00 0.00 0.00 75 1022.4
20260507034945 59 320 7.0 8.0 0.00 0.00 0.00 76 1022.3
20260507034442 59 3 4.0 8.0 0.00 0.00 0.00 76 1022.4
20260507033940 58 312 4.0 8.0 0.00 0.00 0.00 77 1022.1
20260507033437 58 16 5.0 6.0 0.00 0.00 0.00 77 1022.1
20260507032934 58 330 4.0 8.0 0.00 0.00 0.00 78 1022.2
20260507032431 57 314 6.0 8.0 0.00 0.00 0.00 78 1022.2
20260507031927 57 324 5.0 7.0 0.00 0.00 0.00 78 1022.1
20260507031426 57 316 7.0 8.0 0.00 0.00 0.00 78 1022.1
20260507030921 57 343 3.0 6.0 0.00 0.00 0.00 78 1022.0
20260507030418 57 309 6.0 7.0 0.00 0.00 0.00 79 1022.0
20260507025915 57 325 5.0 7.0 0.00 0.00 0.00 79 1022.3
20260507025412 57 329 6.0 8.0 0.00 0.00 0.00 80 1021.8
20260507024910 57 323 5.0 8.0 0.00 0.00 0.00 80 1022.0
20260507024407 57 340 6.0 9.0 0.00 0.00 0.00 80 1022.0
20260507023903 57 317 5.0 8.0 0.00 0.00 0.00 80 1021.8
20260507023400 57 319 8.0 8.0 0.00 0.00 0.00 80 1021.8
20260507022857 57 315 9.0 11.0 0.00 0.00 0.00 81 1021.7
20260507022353 57 344 7.0 9.0 0.00 0.00 0.00 81 1021.5
20260507021849 57 340 8.0 9.0 0.00 0.00 0.00 81 1021.6
20260507021345 57 329 9.0 9.0 0.00 0.00 0.00 81 1021.5
20260507020843 57 338 7.0 9.0 0.00 0.00 0.00 81 1021.5
20260507020339 57 330 5.0 9.0 0.00 0.00 0.00 81 1021.5
20260507015836 57 329 7.0 8.0 0.00 0.00 0.00 81 1021.6
20260507015334 56 319 7.0 9.0 0.00 0.00 0.00 80 1021.7
20260507014831 56 327 6.0 9.0 0.00 0.00 0.00 80 1021.6
20260507014327 57 334 8.0 9.0 0.00 0.00 0.00 80 1021.6
20260507013824 57 353 7.0 9.0 0.00 0.00 0.00 79 1021.4
20260507013321 57 330 8.0 10.0 0.00 0.00 0.00 79 1021.5
20260507012819 57 330 7.0 9.0 0.00 0.00 0.00 79 1021.5
20260507012314 57 354 7.0 8.0 0.00 0.00 0.00 78 1021.6
20260507011812 57 347 6.0 9.0 0.00 0.00 0.00 78 1021.3
20260507011308 57 336 6.0 9.0 0.00 0.00 0.00 78 1021.4
20260507010808 57 334 8.0 10.0 0.00 0.00 0.00 78 1021.4
20260507010304 57 338 6.0 8.0 0.00 0.00 0.00 79 1021.4
20260507005802 57 11 5.0 7.0 0.00 0.00 0.00 79 1021.4
20260507005258 57 340 4.0 8.0 0.00 0.00 0.00 78 1021.3
20260507004754 57 322 4.0 7.0 0.00 0.00 0.00 78 1021.6
20260507004252 57 344 4.0 7.0 0.00 0.00 0.00 78 1021.6
20260507003748 57 324 6.0 9.0 0.00 0.00 0.00 77 1021.5
20260507003243 57 326 5.0 7.0 0.00 0.00 0.00 77 1021.5
20260507002740 57 338 5.0 7.0 0.00 0.00 0.00 78 1021.5
20260507002236 57 7 7.0 10.0 0.00 0.00 0.00 78 1021.5
20260507001733 57 333 4.0 8.0 0.00 0.00 0.00 78 1021.5
20260507001230 57 325 7.0 9.0 0.00 0.00 0.00 78 1021.6
20260507000727 57 299 8.0 9.0 0.00 0.00 0.00 78 1021.6
20260507000222 57 309 6.0 8.0 0.00 0.00 0.00 78 1021.7
20260506235719 57 312 9.0 11.0 0.00 0.00 0.00 78 1021.7
20260506235214 57 319 5.0 9.0 0.00 0.00 0.00 78 1021.7
20260506234712 57 322 9.0 11.0 0.00 0.00 0.00 78 1021.5
20260506234209 57 347 9.0 11.0 0.00 0.00 0.00 78 1021.6
20260506233707 57 338 7.0 11.0 0.00 0.00 0.00 77 1021.7
20260506233203 57 347 8.0 10.0 0.00 0.00 0.00 77 1021.5
20260506232659 57 330 1.0 5.0 0.00 0.00 0.00 77 1021.4
20260506232154 57 325 0.0 5.0 0.00 0.00 0.00 77 1021.4
20260506231652 57 338 0.0 3.0 0.00 0.00 0.00 78 1021.6
20260506231151 57 333 1.0 5.0 0.00 0.00 0.00 79 1021.5
20260506230647 57 344 2.0 6.0 0.00 0.00 0.00 80 1021.6
20260506230144 57 343 5.0 7.0 0.00 0.00 0.00 80 1021.6
20260506225640 57 344 3.0 7.0 0.00 0.00 0.00 80 1021.7
20260506225137 57 358 3.0 8.0 0.00 0.00 0.00 80 1021.7
20260506224633 57 7 3.0 7.0 0.00 0.00 0.00 80 1021.6
20260506224130 57 353 4.0 7.0 0.00 0.00 0.00 79 1021.7
20260506223626 57 328 4.0 7.0 0.00 0.00 0.00 79 1021.8
20260506223122 58 317 6.0 8.0 0.00 0.00 0.00 78 1021.7
20260506222620 57 6 5.0 7.0 0.00 0.00 0.00 78 1021.6
20260506222116 57 340 2.0 6.0 0.00 0.00 0.00 78 1021.8
20260506221614 57 336 1.0 7.0 0.00 0.00 0.00 79 1021.7
20260506221112 57 329 0.0 5.0 0.00 0.00 0.00 78 1021.7
20260506220608 57 351 0.0 6.0 0.00 0.00 0.00 77 1021.7
20260506215600 58 325 3.0 5.0 0.00 0.00 0.00 76 1021.7
20260506215055 58 336 3.0 9.0 0.00 0.00 0.00 75 1021.7
20260506214553 58 324 6.0 8.0 0.00 0.00 0.00 74 1022.0
20260506214050 59 328 1.0 9.0 0.00 0.00 0.00 72 1021.7
20260506213548 59 329 0.0 8.0 0.00 0.00 0.00 70 1021.7
20260506213045 59 326 0.0 2.0 0.00 0.00 0.00 71 1021.7
20260506212542 59 314 0.0 0.0 0.00 0.00 0.00 71 1021.7
20260506212036 59 319 0.0 0.0 0.00 0.00 0.00 72 1021.8
20260506211533 59 331 0.0 0.0 0.00 0.00 0.00 75 1021.9
20260506211030 59 324 0.0 2.0 0.00 0.00 0.00 77 1021.9
20260506210526 59 330 0.0 0.0 0.00 0.00 0.00 78 1021.8
20260506210023 59 304 0.0 0.0 0.00 0.00 0.00 78 1021.8
20260506205520 59 296 0.0 3.0 0.00 0.00 0.00 77 1021.8
20260506205015 60 291 3.0 3.0 0.00 0.00 0.00 76 1021.9
20260506204514 60 287 3.0 3.0 0.00 0.00 0.00 75 1021.7
20260506204010 60 311 2.0 2.0 0.00 0.00 0.00 75 1021.8
20260506203508 60 316 2.0 2.0 0.00 0.00 0.00 74 1022.0
20260506203004 60 316 1.0 2.0 0.00 0.00 0.00 73 1021.7
20260506202502 60 328 1.0 2.0 0.00 0.00 0.00 74 1021.9
20260506201958 60 334 1.0 1.0 0.00 0.00 0.00 75 1021.9
20260506201456 60 357 1.0 1.0 0.00 0.00 0.00 75 1021.9
20260506200952 60 355 1.0 1.0 0.00 0.00 0.00 75 1022.1
20260506200449 60 34 1.0 1.0 0.00 0.00 0.00 75 1022.0
20260506195945 60 348 2.0 2.0 0.00 0.00 0.00 76 1021.9
20260506195442 60 86 0.0 0.0 0.00 0.00 0.00 76 1021.9
20260506194938 60 102 0.0 0.0 0.00 0.00 0.00 75 1022.0
20260506194436 60 214 0.0 0.0 0.00 0.00 0.00 75 1021.9
20260506193933 60 238 0.0 0.0 0.00 0.00 0.00 75 1021.9
20260506193430 60 227 0.0 0.0 0.00 0.00 0.00 74 1021.8
20260506192926 61 192 0.0 0.0 0.00 0.00 0.00 74 1021.9
20260506192423 61 200 0.0 0.0 0.00 0.00 0.00 74 1022.0
20260506191920 61 182 0.0 0.0 0.00 0.00 0.00 73 1021.7
20260506191416 61 132 0.0 0.0 0.00 0.00 0.00 73 1021.9
20260506190914 61 159 0.0 0.0 0.00 0.00 0.00 73 1021.8
20260506190410 61 130 0.0 0.0 0.00 0.00 0.00 73 1021.9
20260506185907 61 127 0.0 0.0 0.00 0.00 0.00 73 1021.8
20260506185404 61 137 0.0 1.0 0.00 0.00 0.00 73 1021.8
20260506184901 61 183 1.0 1.0 0.00 0.00 0.00 73 1021.6
20260506184358 61 169 0.0 1.0 0.00 0.00 0.00 72 1021.6
20260506183855 61 180 1.0 1.0 0.00 0.00 0.00 72 1021.7
20260506183350 61 151 0.0 1.0 0.00 0.00 0.00 72 1021.5
20260506182848 61 164 0.0 0.0 0.00 0.00 0.00 72 1021.5
20260506182345 61 164 0.0 0.0 0.00 0.00 0.00 71 1021.5
20260506181842 62 157 0.0 0.0 0.00 0.00 0.00 71 1021.6
20260506181340 62 157 0.0 0.0 0.00 0.00 0.00 71 1021.4
20260506180837 62 163 0.0 1.0 0.00 0.00 0.00 70 1021.3
20260506180333 62 185 1.0 1.0 0.00 0.00 0.00 71 1021.3
20260506175829 62 164 0.0 1.0 0.00 0.00 0.00 71 1021.4
20260506175326 62 186 0.0 1.0 0.00 0.00 0.00 70 1021.4
20260506174824 62 175 0.0 0.0 0.00 0.00 0.00 69 1021.0
20260506174321 63 154 0.0 1.0 0.00 0.00 0.00 69 1021.5
20260506173818 63 218 4.0 6.0 0.00 0.00 0.00 68 1021.3
20260506173315 63 223 4.0 6.0 0.00 0.00 0.00 68 1021.2
20260506172812 63 214 5.0 6.0 0.00 0.00 0.00 67 1021.3
20260506172309 63 218 3.0 6.0 0.00 0.00 0.00 68 1021.2
20260506171806 63 208 4.0 5.0 0.00 0.00 0.00 68 1021.0
20260506171303 63 209 3.0 5.0 0.00 0.00 0.00 68 1021.2
20260506170801 63 210 3.0 6.0 0.00 0.00 0.00 68 1021.0
20260506170257 63 239 5.0 6.0 0.00 0.00 0.00 67 1021.0
20260506165756 63 216 4.0 5.0 0.00 0.00 0.00 66 1021.1
20260506165253 64 178 5.0 7.0 0.00 0.00 0.00 66 1021.0
20260506164749 63 223 5.0 7.0 0.00 0.00 0.00 66 1021.0
20260506164246 64 233 5.0 7.0 0.00 0.00 0.00 65 1020.9
20260506163743 64 224 5.0 7.0 0.00 0.00 0.00 65 1020.9
20260506163238 64 215 5.0 7.0 0.00 0.00 0.00 65 1020.9
20260506162734 64 210 5.0 8.0 0.00 0.00 0.00 65 1020.8
20260506162232 64 179 5.0 8.0 0.00 0.00 0.00 65 1020.8
20260506161729 64 197 3.0 5.0 0.00 0.00 0.00 65 1020.8
20260506161226 64 188 6.0 10.0 0.00 0.00 0.00 65 1020.7
20260506160724 64 176 6.0 10.0 0.00 0.00 0.00 63 1020.6
20260506160220 64 200 7.0 9.0 0.00 0.00 0.00 63 1020.7
20260506155719 64 191 9.0 11.0 0.00 0.00 0.00 63 1020.5
20260506155216 65 177 8.0 9.0 0.00 0.00 0.00 63 1020.4
20260506153323 65 225 6.0 8.0 0.00 0.00 0.00 60 1020.4
20260506152820 65 175 9.0 11.0 0.00 0.00 0.00 60 1020.5
20260506152317 66 192 7.0 9.0 0.00 0.00 0.00 60 1020.6
20260506151816 66 208 7.0 10.0 0.00 0.00 0.00 59 1020.7
20260506151312 66 204 8.0 11.0 0.00 0.00 0.00 59 1020.6
20260506150809 66 191 7.0 11.0 0.00 0.00 0.00 59 1020.5
20260506150306 66 197 8.0 10.0 0.00 0.00 0.00 59 1020.8
20260506145803 66 202 10.0 11.0 0.00 0.00 0.00 59 1020.5
20260506145259 67 193 8.0 10.0 0.00 0.00 0.00 59 1020.5
20260506144757 66 203 10.0 11.0 0.00 0.00 0.00 59 1020.4
20260506144254 67 195 11.0 11.0 0.00 0.00 0.00 59 1020.5
20260506143752 67 215 8.0 11.0 0.00 0.00 0.00 59 1020.5
20260506143248 67 178 10.0 11.0 0.00 0.00 0.00 59 1020.6
20260506142747 67 189 11.0 13.0 0.00 0.00 0.00 60 1020.5
20260506142245 67 197 11.0 14.0 0.00 0.00 0.00 60 1020.2
20260506141743 67 182 9.0 13.0 0.00 0.00 0.00 61 1020.5
20260506141241 67 203 9.0 13.0 0.00 0.00 0.00 60 1020.3
20260506140738 67 181 8.0 10.0 0.00 0.00 0.00 59 1020.4
20260506140235 67 193 10.0 13.0 0.00 0.00 0.00 58 1020.4
20260506135732 68 171 12.0 14.0 0.00 0.00 0.00 56 1020.5
20260506135228 67 194 11.0 14.0 0.00 0.00 0.00 58 1020.3
20260506134725 69 172 8.0 10.0 0.00 0.00 0.00 57 1020.5
20260506134221 68 204 9.0 11.0 0.00 0.00 0.00 57 1020.5
20260506133719 68 165 9.0 13.0 0.00 0.00 0.00 58 1020.4
20260506133215 68 154 6.0 14.0 0.00 0.00 0.00 60 1020.5